SCP
-0 -0 -0 -0 -0 -0 -0 0 0 0 0 0 0 -0 0 0 0 0 0 0 0 0 0 0 0 0 0 0 0 0 0 0 0 0 0 0 0 -0 -0 0 -0 0 0 0 -0
-0 -0 -0 -0 -0 -0 -0 0 0 -0 -0 0 -0 -0 0 0 0 0 0 -0 -0 -0 0 0 0 0 0 0 0 0 0 0 0 0 0 0 0 0 0 0 -0 0 0 0 -0
-0 -0 -0 0 -0 -0 -0 0 0 0 0 0 -0 -0 0 0 0 0 -0 -0 -0 0 0 0 0 0 0 0 0 0 0 0 0 0 0 0 0 0 0 0 -0 -0 -0 0 -0
-0 -0 -0 -0 -0 0 0 0 0 0 0 0 0 0 -0 0 0 0 -0 -0 -0 -0 0 0 0 0 0 0 0 0 0 0 0 0 0 0 0 0 0 0 -0 -0 -0 -0 -0
-0 -0 -0 -0 -0 -0 0 0 0 0 0 0 -0 -0 0 0 0 -0 -0 -0 -0 0 0 0 0 0 0 0 0 0 0 0 0 0 0 0 0 0 0 0 -0 -0 -0 -0 -0
0 -0 -0 -0 0 0 0 0 0 0 0 -0 -0 -0 -0 0 -0 0 0 0 0 0 0 0 0 0 0 0 0 0 0 -0 -0 -0 -0 0 0 0 -0 -0 0 0 -0 -0 -0
-0 -0 -0 0 0 0 0 0 0 0 0 -0 -0 -0 -0 -0 -0 0 0 0 0 0 0 0 0 0 0 0 0 0 0 -0 -0 -0 0 0 0 0 -0 -0 0 0 0 0 0
-0 0 0 -0 0 0 0 0 0 0 -0 -0 -0 -0 -0 -0 -0 0 0 -0 0 0 0 0 0 0 0 0 0 0 0 0 0 0 0 0 0 0 0 0 0 0 0 0 0
0 0 0 -0 -0 -0 0 -0 0 -0 0 -0 -0 -0 -0 -0 -0 0 0 0 0 0 0 0 0 0 0 0 0 0 0 0 0 0 0 0 0 -0 0 0 0 0 0 0 0
0 0 0 0 -0 -0 -0 0 0 0 0 0 -0 0 -0 -0 0 0 0 0 0 0 0 0 0 0 0 0 0 0 0 0 0 0 0 0 0 -0 0 0 0 0 0 0 0
0 0 0 0 0 -0 0 0 0 0 0 0 -0 -0 -0 0 0 0 0 0 0 0 0 0 0 0 0 0 0 0 0 0 0 0 0 0 0 -0 0 0 0 0 0 0 0
0 0 0 0 0 0 0 0 0 0 0 0 0 0 0 0 0 0 0 0 0 0 0 0 0 0 0 0 0 0 0 0 0 0 0 0 -0 -0 -0 0 0 0 -0 -0 0
0 0 0 0 0 0 0 0 0 0 0 0 0 0 0 0 0 0 0 0 0 0 0 0 0 0 0 0 0 0 0 0 0 -0 -0 0 -0 -0 -0 0 0 0 0 -0 -0
0 0 0 0 0 0 0 0 0 0 0 0 0 0 0 0 0 0 0 0 0 0 0 0 0 0 0 0 0 0 0 0 0 -0 0 0 -0 0 0 0 0 0 0 -0 0
0 0 0 -0 0 0 0 0 0 0 0 0 0 0 -0 0 0 0 0 -0 0 0 0 0 0 0 0 0 0 0 0 0 0 0 0 0 0 0 0 0 0 0 0 0 0
0 0 -0 0 0 0 0 0 0 0 0 0 0 0 0 0 0 0 0 0 0 0 0 0 0 0 0 0 0 0 0 0 0 0 0 0 0 -0 0 0 0 0 0 0 0
0 0 -0 0 0 0 0 0 0 0 0 0 0 0 0 0 0 0 0 0 0 0 0 0 0 0 0 0 0 0 0 -0 -0 0 0 0 0 0 0 0 0 0 0 0 0
0 -0 0 0 0 0 0 0 0 0 0 0 0 0 0 0 0 0 0 0 0 0 0 0 -0 0 0 0 -0 -0 0 0 0 0 0 0 0 0 0 0 0 0 0 0 0
0 0 0 0 0 0 0 0 0 0 0 0 0 0 0 0 0 0 0 0 0 0 0 0 0 0 -0 -0 0 0 0 0 0 0 -0 -0 0 0 0 0 0 0 0 0 0
0 0 0 0 0 0 0 0 0 0 0 0 0 0 0 0 0 0 0 0 0 0 0 0 -0 0 0 0 0 0 0 0 0 -0 -0 0 0 0 0 0 0 0 0 0 0
0 0 0 0 0 0 0 0 0 0 0 0 0 0 0 0 0 0 0 0 0 0 0 0 0 0 0 0 0 0 0 0 0 0 0 -0 0 0 0 0 0 0 0 0 0
0 0 0 0 0 0 0 0 0 0 0 0 0 0 0 0 0 0 0 0 0 0 0 0 0 0 0 0 0 0 -0 0 0 0 0 0 0 0 0 0 0 -0 0 0 0
0 0 0 0 0 0 0 0 0 0 0 0 0 0 0 0 0 0 0 0 0 0 0 0 0 0 0 0 0 0 0 0 0 0 0 0 0 0 0 0 0 0 0 0 0
0 0 0 0 0 0 0 0 0 0 0 0 0 0 0 0 0 0 0 0 0 0 0 0 0 0 0 0 0 0 0 0 0 0 0 0 0 0 0 0 0 0 -0 -0 -0
0 0 0 0 0 0 0 0 0 0 0 0 0 0 0 0 0 0 0 0 0 0 0 0 0 0 0 0 0 0 0 0 0 0 0 0 -0 0 0 0 0 0 -0 -0 -0
0 0 0 0 0 0 0 0 0 0 0 0 0 0 0 0 0 0 0 0 0 0 0 0 0 0 0 0 0 0 0 0 0 0 0 0 -0 -0 -0 0 0 0 -0 -0 -0
0 0 0 0 0 0 0 0 0 0 0 0 0 0 0 0 0 0 0 0 0 0 0 0 0 -0 0 0 0 0 0 0 0 0 0 0 -0 -0 0 0 0 0 -0 -0 -0
Wind_Speed_500mb
50 43 34 27 24 23 24 27 30 36 35 34 32 30 23 18 17 18 19 21 26 23 16 7 9 16 6 4 1 2 7 0 6 5 11 41 14 34 32 28 29 10 21 33 20
50 44 35 27 22 20 21 24 29 33 35 30 30 28 19 10 8 18 26 29 23 24 23 25 29 21 7 4 3 7 6 12 13 11 15 28 25 50 17 32 6 26 22 29 33
52 44 34 27 22 18 19 22 27 29 32 28 27 27 18 11 11 8 24 26 21 17 25 28 32 17 8 11 7 3 7 10 21 38 39 23 24 56 14 11 19 19 24 28 27
57 45 36 29 22 16 18 21 25 28 32 28 32 21 13 8 5 5 20 21 19 18 23 23 26 16 11 11 13 6 17 9 23 45 33 11 15 12 24 21 29 30 27 31 30
63 46 38 31 22 16 18 21 23 25 31 30 32 16 8 7 8 11 19 13 17 21 22 21 18 11 6 10 22 8 4 24 38 42 44 39 24 20 31 42 29 25 40 37 29
66 48 40 33 26 21 22 23 22 26 28 27 29 16 8 6 6 10 17 7 12 15 16 14 12 15 4 9 4 16 36 36 30 35 33 14 19 17 68 29 44 54 63 53 36
67 49 37 32 28 24 23 22 24 27 20 20 21 16 9 8 1 6 7 5 8 16 26 21 19 13 13 12 12 28 20 22 8 14 10 14 19 26 51 56 58 61 66 64 52
68 52 35 28 26 23 23 24 31 26 9 22 15 9 5 1 11 14 14 16 15 17 21 22 23 26 13 13 14 12 6 11 12 10 15 3 22 20 50 43 53 62 66 65 54
69 58 34 24 18 19 22 31 36 11 11 19 7 8 1 12 18 20 23 26 19 27 31 28 22 24 8 2 10 9 11 12 15 2 11 2 36 8 53 53 42 56 59 57 50
68 64 37 27 15 21 23 32 31 4 21 11 9 8 5 16 29 36 31 36 39 38 30 11 9 3 4 5 13 22 15 15 26 34 36 37 46 34 33 46 44 54 58 54 53
70 64 38 26 13 20 28 23 29 5 41 9 28 12 21 26 34 38 46 32 40 16 9 11 5 14 24 21 31 22 28 35 31 32 33 44 50 46 35 39 35 52 57 56 53
75 60 35 18 9 15 29 22 18 17 17 21 8 23 22 37 25 35 41 7 10 16 7 7 13 24 20 18 21 25 32 35 28 29 27 35 52 38 29 20 45 52 54 61 63
77 60 23 12 5 17 24 23 23 24 3 15 6 13 15 27 7 27 50 27 7 10 13 13 20 19 24 29 28 21 22 27 24 16 18 26 56 37 28 29 40 52 64 71 71
73 47 25 15 3 20 19 25 19 19 9 9 8 9 28 12 4 25 37 16 6 13 11 12 13 36 29 32 23 28 9 12 20 14 25 18 35 55 23 41 32 42 55 68 73
67 29 30 30 18 19 22 19 11 5 6 10 6 13 24 11 25 15 31 27 9 9 2 14 26 39 21 15 4 11 8 3 13 23 9 21 12 55 16 25 24 27 57 74 74
56 14 26 37 33 29 32 23 1 10 2 9 5 15 15 8 25 17 23 33 12 5 6 19 49 8 8 7 5 6 7 32 9 3 14 20 29 39 25 27 14 29 48 61 68
43 8 18 42 37 39 41 5 10 9 12 11 11 10 9 8 15 5 9 18 1 9 10 31 6 12 7 7 10 14 13 9 9 5 13 12 18 33 13 23 20 19 37 56 63
32 11 26 36 34 41 38 11 11 1 13 10 13 14 9 7 10 7 15 15 5 7 5 8 26 5 7 12 19 24 14 8 12 7 9 11 17 11 23 29 41 39 37 51 59
29 12 30 37 29 26 18 9 7 5 9 12 15 8 6 5 10 11 8 7 10 14 7 13 16 21 37 41 11 7 8 8 11 19 16 10 13 18 26 24 16 21 33 37 48
32 1 27 41 13 12 10 7 6 4 15 7 8 5 13 22 8 10 8 11 9 15 14 11 35 18 9 7 18 23 8 2 6 8 11 8 8 16 18 9 8 12 16 28 28
26 5 24 38 11 12 6 8 10 33 32 7 8 13 15 12 9 7 12 20 10 5 23 7 12 18 15 11 9 3 5 10 7 8 7 10 8 13 20 21 11 13 21 28 35
23 7 27 28 13 8 3 11 27 15 34 10 10 6 10 15 11 10 14 11 37 9 9 14 9 20 18 47 19 7 10 10 7 6 9 9 27 22 12 6 5 10 19 25 33
37 11 18 29 7 8 16 12 10 13 11 6 9 8 8 8 13 8 20 15 23 6 10 8 7 9 8 6 9 3 4 7 13 16 34 24 15 2 11 14 14 16 29 33 41
17 8 13 15 15 4 8 11 14 24 28 16 35 10 10 16 14 16 10 10 29 26 28 15 4 13 21 32 21 29 32 33 27 12 28 33 55 37 38 36 27 46 41 48 49
16 4 5 7 12 15 3 8 11 12 12 29 10 12 25 16 16 11 21 37 36 7 7 8 8 15 32 43 43 44 45 40 38 37 30 39 31 34 39 31 26 32 42 42 46
13 13 12 24 16 6 4 6 22 20 14 23 12 37 26 16 22 35 40 37 16 4 7 7 8 22 33 34 44 47 44 39 38 23 25 33 48 40 34 20 29 34 49 49 52
13 17 17 14 6 3 7 6 33 31 28 35 33 36 30 28 36 63 72 56 29 11 11 5 6 14 15 16 38 21 5 5 5 15 18 31 48 37 29 29 29 57 55 60 58
Wind_Direction_500mb
5 2 357 355 353 353 355 355 355 353 350 350 352 354 4 24 64 57 39 35 33 34 37 56 21 19 1 15 116 182 65 330 266 320 261 300 302 301 300 288 319 325 323 340 348
3 360 356 352 346 345 348 349 350 351 352 353 357 359 12 33 58 55 41 35 43 54 44 32 23 12 15 5 154 106 116 230 213 226 251 271 275 289 292 300 255 312 327 340 342
3 360 357 353 345 338 342 347 349 353 357 3 352 357 7 14 115 58 33 36 58 63 33 24 14 22 4 333 2 42 203 235 273 280 297 272 282 284 265 273 282 300 326 340 344
7 4 3 358 351 343 343 344 348 351 355 356 350 338 8 49 109 41 21 54 61 47 28 24 22 25 26 348 341 301 264 281 311 314 320 275 299 289 259 260 296 293 302 307 309
9 8 6 4 3 1 352 348 346 347 351 355 351 357 65 59 84 53 27 57 50 46 34 21 14 22 354 309 333 204 273 305 305 307 304 296 273 263 276 286 300 277 295 298 305
9 9 8 10 13 10 359 354 354 345 346 354 12 29 64 71 74 26 17 27 352 339 348 344 341 345 326 308 334 302 302 297 305 290 281 267 277 301 281 291 291 290 293 296 293
9 8 8 11 12 11 11 3 353 344 346 351 7 17 64 68 5 317 332 333 325 316 301 291 285 296 310 306 310 299 307 315 258 266 276 270 304 254 293 301 300 292 291 294 293
8 6 4 8 15 23 18 8 344 340 352 351 354 18 114 279 294 300 280 300 297 295 291 310 279 263 254 277 321 338 354 342 287 309 277 163 272 300 299 303 295 295 293 293 290
6 3 357 0 13 13 7 356 345 360 6 350 9 7 195 318 318 324 260 268 302 284 285 295 265 241 250 110 347 347 265 281 302 162 278 204 289 259 304 304 296 302 299 294 292
1 360 352 352 354 5 1 354 357 11 342 358 8 337 333 325 325 315 298 262 263 275 289 259 184 171 37 93 264 272 265 257 281 295 304 296 278 290 282 289 286 287 294 293 291
358 357 352 352 2 21 15 15 13 339 334 307 312 283 296 327 308 312 316 270 252 246 229 233 132 242 244 236 256 263 267 266 274 283 285 286 281 289 287 270 277 283 290 291 294
354 355 351 350 23 21 21 35 21 329 305 322 309 273 310 324 291 11 21 270 255 254 331 354 244 247 249 248 252 248 260 268 271 260 272 281 277 282 273 248 262 270 277 284 286
353 355 3 352 54 28 21 21 357 352 305 309 328 343 352 349 29 23 19 0 27 347 281 233 251 295 284 276 258 246 254 272 277 290 271 299 286 280 267 267 261 263 271 272 271
353 1 19 8 33 351 1 346 339 342 58 311 1 19 357 350 81 2 16 12 354 279 291 274 303 309 295 278 260 270 270 280 308 307 283 176 277 276 260 261 253 263 263 265 266
354 11 32 34 28 5 346 340 323 316 58 303 0 342 341 44 356 8 6 358 310 269 46 262 320 313 301 263 219 252 320 269 285 273 289 235 253 274 210 251 255 246 250 261 265
355 27 34 24 15 355 346 334 110 42 308 326 353 335 2 6 359 333 350 352 314 292 278 263 295 233 246 298 153 237 356 313 300 154 245 239 218 273 241 251 242 253 256 261 266
356 4 14 15 4 356 347 43 39 84 349 315 300 324 307 301 323 333 318 335 237 1 280 314 246 280 194 320 354 36 27 317 326 224 244 321 236 245 270 265 235 249 268 275 276
1 35 21 2 339 345 347 50 69 121 273 296 282 281 248 339 248 288 314 315 224 201 332 333 313 251 200 274 294 289 172 202 245 234 265 329 255 249 228 251 250 261 285 282 275
5 66 21 353 332 337 344 50 204 288 310 301 312 279 280 244 244 336 266 274 238 172 222 311 263 299 286 285 163 255 171 207 267 273 267 223 285 304 266 256 260 283 299 302 275
354 333 10 3 5 356 68 233 248 251 310 280 276 287 296 313 314 332 308 251 277 193 145 239 290 278 287 288 239 207 186 358 186 257 259 254 245 243 296 285 295 291 293 335 327
358 319 344 353 335 37 107 253 292 318 345 285 270 262 266 299 234 249 245 282 285 262 198 218 218 279 340 223 209 150 207 212 228 209 252 300 232 221 231 246 235 305 313 338 331
359 354 354 350 43 21 4 304 308 286 337 295 319 283 281 309 276 257 226 217 300 299 248 210 244 272 261 278 275 197 238 190 257 262 234 262 268 241 262 200 298 311 339 339 320
337 312 356 16 72 343 318 302 272 309 309 321 295 287 288 290 325 267 286 264 287 277 252 177 241 299 282 3 16 93 184 243 245 271 252 253 254 299 3 323 309 305 313 316 314
344 356 345 36 38 96 322 283 318 322 301 355 306 288 336 300 227 275 284 287 289 280 291 157 239 240 278 278 276 271 266 261 250 245 263 250 271 280 291 286 293 305 310 326 314
0 345 49 312 332 327 244 269 317 342 301 319 302 357 318 309 297 243 301 306 310 223 137 164 247 258 262 264 269 269 267 265 254 254 250 270 277 285 280 283 292 300 305 311 309
3 337 316 291 277 281 297 286 309 328 309 313 307 309 306 275 262 302 310 303 271 211 189 168 276 299 291 259 264 269 265 252 257 246 265 273 273 278 281 278 275 284 298 292 289
342 315 309 274 274 304 241 264 314 308 297 300 307 309 298 284 295 289 283 277 252 227 202 215 275 305 290 298 300 281 327 84 280 251 263 271 287 298 289 277 289 293 287 278 275
Wind_Speed_850mb
50 43 34 27 24 23 24 27 30 36 35 34 32 30 23 18 17 18 19 21 26 23 16 7 9 16 6 4 1 2 7 0 6 5 11 41 14 34 32 28 29 10 21 33 20
50 44 35 27 22 20 21 24 29 33 35 30 30 28 19 10 8 18 26 29 23 24 23 25 29 21 7 4 3 7 6 12 13 11 15 28 25 50 17 32 6 26 22 29 33
52 44 34 27 22 18 19 22 27 29 32 28 27 27 18 11 11 8 24 26 21 17 25 28 32 17 8 11 7 3 7 10 21 38 39 23 24 56 14 11 19 19 24 28 27
57 45 36 29 22 16 18 21 25 28 32 28 32 21 13 8 5 5 20 21 19 18 23 23 26 16 11 11 13 6 17 9 23 45 33 11 15 12 24 21 29 30 27 31 30
63 46 38 31 22 16 18 21 23 25 31 30 32 16 8 7 8 11 19 13 17 21 22 21 18 11 6 10 22 8 4 24 38 42 44 39 24 20 31 42 29 25 40 37 29
66 48 40 33 26 21 22 23 22 26 28 27 29 16 8 6 6 10 17 7 12 15 16 14 12 15 4 9 4 16 36 36 30 35 33 14 19 17 68 29 44 54 63 53 36
67 49 37 32 28 24 23 22 24 27 20 20 21 16 9 8 1 6 7 5 8 16 26 21 19 13 13 12 12 28 20 22 8 14 10 14 19 26 51 56 58 61 66 64 52
68 52 35 28 26 23 23 24 31 26 9 22 15 9 5 1 11 14 14 16 15 17 21 22 23 26 13 13 14 12 6 11 12 10 15 3 22 20 50 43 53 62 66 65 54
69 58 34 24 18 19 22 31 36 11 11 19 7 8 1 12 18 20 23 26 19 27 31 28 22 24 8 2 10 9 11 12 15 2 11 2 36 8 53 53 42 56 59 57 50
68 64 37 27 15 21 23 32 31 4 21 11 9 8 5 16 29 36 31 36 39 38 30 11 9 3 4 5 13 22 15 15 26 34 36 37 46 34 33 46 44 54 58 54 53
70 64 38 26 13 20 28 23 29 5 41 9 28 12 21 26 34 38 46 32 40 16 9 11 5 14 24 21 31 22 28 35 31 32 33 44 50 46 35 39 35 52 57 56 53
75 60 35 18 9 15 29 22 18 17 17 21 8 23 22 37 25 35 41 7 10 16 7 7 13 24 20 18 21 25 32 35 28 29 27 35 52 38 29 20 45 52 54 61 63
77 60 23 12 5 17 24 23 23 24 3 15 6 13 15 27 7 27 50 27 7 10 13 13 20 19 24 29 28 21 22 27 24 16 18 26 56 37 28 29 40 52 64 71 71
73 47 25 15 3 20 19 25 19 19 9 9 8 9 28 12 4 25 37 16 6 13 11 12 13 36 29 32 23 28 9 12 20 14 25 18 35 55 23 41 32 42 55 68 73
67 29 30 30 18 19 22 19 11 5 6 10 6 13 24 11 25 15 31 27 9 9 2 14 26 39 21 15 4 11 8 3 13 23 9 21 12 55 16 25 24 27 57 74 74
56 14 26 37 33 29 32 23 1 10 2 9 5 15 15 8 25 17 23 33 12 5 6 19 49 8 8 7 5 6 7 32 9 3 14 20 29 39 25 27 14 29 48 61 68
43 8 18 42 37 39 41 5 10 9 12 11 11 10 9 8 15 5 9 18 1 9 10 31 6 12 7 7 10 14 13 9 9 5 13 12 18 33 13 23 20 19 37 56 63
32 11 26 36 34 41 38 11 11 1 13 10 13 14 9 7 10 7 15 15 5 7 5 8 26 5 7 12 19 24 14 8 12 7 9 11 17 11 23 29 41 39 37 51 59
29 12 30 37 29 26 18 9 7 5 9 12 15 8 6 5 10 11 8 7 10 14 7 13 16 21 37 41 11 7 8 8 11 19 16 10 13 18 26 24 16 21 33 37 48
32 1 27 41 13 12 10 7 6 4 15 7 8 5 13 22 8 10 8 11 9 15 14 11 35 18 9 7 18 23 8 2 6 8 11 8 8 16 18 9 8 12 16 28 28
26 5 24 38 11 12 6 8 10 33 32 7 8 13 15 12 9 7 12 20 10 5 23 7 12 18 15 11 9 3 5 10 7 8 7 10 8 13 20 21 11 13 21 28 35
23 7 27 28 13 8 3 11 27 15 34 10 10 6 10 15 11 10 14 11 37 9 9 14 9 20 18 47 19 7 10 10 7 6 9 9 27 22 12 6 5 10 19 25 33
37 11 18 29 7 8 16 12 10 13 11 6 9 8 8 8 13 8 20 15 23 6 10 8 7 9 8 6 9 3 4 7 13 16 34 24 15 2 11 14 14 16 29 33 41
17 8 13 15 15 4 8 11 14 24 28 16 35 10 10 16 14 16 10 10 29 26 28 15 4 13 21 32 21 29 32 33 27 12 28 33 55 37 38 36 27 46 41 48 49
16 4 5 7 12 15 3 8 11 12 12 29 10 12 25 16 16 11 21 37 36 7 7 8 8 15 32 43 43 44 45 40 38 37 30 39 31 34 39 31 26 32 42 42 46
13 13 12 24 16 6 4 6 22 20 14 23 12 37 26 16 22 35 40 37 16 4 7 7 8 22 33 34 44 47 44 39 38 23 25 33 48 40 34 20 29 34 49 49 52
13 17 17 14 6 3 7 6 33 31 28 35 33 36 30 28 36 63 72 56 29 11 11 5 6 14 15 16 38 21 5 5 5 15 18 31 48 37 29 29 29 57 55 60 58
Wind_Direction_850mb
5 2 357 355 353 353 355 355 355 353 350 350 352 354 4 24 64 57 39 35 33 34 37 56 21 19 1 15 116 182 65 330 266 320 261 300 302 301 300 288 319 325 323 340 348
3 360 356 352 346 345 348 349 350 351 352 353 357 359 12 33 58 55 41 35 43 54 44 32 23 12 15 5 154 106 116 230 213 226 251 271 275 289 292 300 255 312 327 340 342
3 360 357 353 345 338 342 347 349 353 357 3 352 357 7 14 115 58 33 36 58 63 33 24 14 22 4 333 2 42 203 235 273 280 297 272 282 284 265 273 282 300 326 340 344
7 4 3 358 351 343 343 344 348 351 355 356 350 338 8 49 109 41 21 54 61 47 28 24 22 25 26 348 341 301 264 281 311 314 320 275 299 289 259 260 296 293 302 307 309
9 8 6 4 3 1 352 348 346 347 351 355 351 357 65 59 84 53 27 57 50 46 34 21 14 22 354 309 333 204 273 305 305 307 304 296 273 263 276 286 300 277 295 298 305
9 9 8 10 13 10 359 354 354 345 346 354 12 29 64 71 74 26 17 27 352 339 348 344 341 345 326 308 334 302 302 297 305 290 281 267 277 301 281 291 291 290 293 296 293
9 8 8 11 12 11 11 3 353 344 346 351 7 17 64 68 5 317 332 333 325 316 301 291 285 296 310 306 310 299 307 315 258 266 276 270 304 254 293 301 300 292 291 294 293
8 6 4 8 15 23 18 8 344 340 352 351 354 18 114 279 294 300 280 300 297 295 291 310 279 263 254 277 321 338 354 342 287 309 277 163 272 300 299 303 295 295 293 293 290
6 3 357 0 13 13 7 356 345 360 6 350 9 7 195 318 318 324 260 268 302 284 285 295 265 241 250 110 347 347 265 281 302 162 278 204 289 259 304 304 296 302 299 294 292
1 360 352 352 354 5 1 354 357 11 342 358 8 337 333 325 325 315 298 262 263 275 289 259 184 171 37 93 264 272 265 257 281 295 304 296 278 290 282 289 286 287 294 293 291
358 357 352 352 2 21 15 15 13 339 334 307 312 283 296 327 308 312 316 270 252 246 229 233 132 242 244 236 256 263 267 266 274 283 285 286 281 289 287 270 277 283 290 291 294
354 355 351 350 23 21 21 35 21 329 305 322 309 273 310 324 291 11 21 270 255 254 331 354 244 247 249 248 252 248 260 268 271 260 272 281 277 282 273 248 262 270 277 284 286
353 355 3 352 54 28 21 21 357 352 305 309 328 343 352 349 29 23 19 0 27 347 281 233 251 295 284 276 258 246 254 272 277 290 271 299 286 280 267 267 261 263 271 272 271
353 1 19 8 33 351 1 346 339 342 58 311 1 19 357 350 81 2 16 12 354 279 291 274 303 309 295 278 260 270 270 280 308 307 283 176 277 276 260 261 253 263 263 265 266
354 11 32 34 28 5 346 340 323 316 58 303 0 342 341 44 356 8 6 358 310 269 46 262 320 313 301 263 219 252 320 269 285 273 289 235 253 274 210 251 255 246 250 261 265
355 27 34 24 15 355 346 334 110 42 308 326 353 335 2 6 359 333 350 352 314 292 278 263 295 233 246 298 153 237 356 313 300 154 245 239 218 273 241 251 242 253 256 261 266
356 4 14 15 4 356 347 43 39 84 349 315 300 324 307 301 323 333 318 335 237 1 280 314 246 280 194 320 354 36 27 317 326 224 244 321 236 245 270 265 235 249 268 275 276
1 35 21 2 339 345 347 50 69 121 273 296 282 281 248 339 248 288 314 315 224 201 332 333 313 251 200 274 294 289 172 202 245 234 265 329 255 249 228 251 250 261 285 282 275
5 66 21 353 332 337 344 50 204 288 310 301 312 279 280 244 244 336 266 274 238 172 222 311 263 299 286 285 163 255 171 207 267 273 267 223 285 304 266 256 260 283 299 302 275
354 333 10 3 5 356 68 233 248 251 310 280 276 287 296 313 314 332 308 251 277 193 145 239 290 278 287 288 239 207 186 358 186 257 259 254 245 243 296 285 295 291 293 335 327
358 319 344 353 335 37 107 253 292 318 345 285 270 262 266 299 234 249 245 282 285 262 198 218 218 279 340 223 209 150 207 212 228 209 252 300 232 221 231 246 235 305 313 338 331
359 354 354 350 43 21 4 304 308 286 337 295 319 283 281 309 276 257 226 217 300 299 248 210 244 272 261 278 275 197 238 190 257 262 234 262 268 241 262 200 298 311 339 339 320
337 312 356 16 72 343 318 302 272 309 309 321 295 287 288 290 325 267 286 264 287 277 252 177 241 299 282 3 16 93 184 243 245 271 252 253 254 299 3 323 309 305 313 316 314
344 356 345 36 38 96 322 283 318 322 301 355 306 288 336 300 227 275 284 287 289 280 291 157 239 240 278 278 276 271 266 261 250 245 263 250 271 280 291 286 293 305 310 326 314
0 345 49 312 332 327 244 269 317 342 301 319 302 357 318 309 297 243 301 306 310 223 137 164 247 258 262 264 269 269 267 265 254 254 250 270 277 285 280 283 292 300 305 311 309
3 337 316 291 277 281 297 286 309 328 309 313 307 309 306 275 262 302 310 303 271 211 189 168 276 299 291 259 264 269 265 252 257 246 265 273 273 278 281 278 275 284 298 292 289
342 315 309 274 274 304 241 264 314 308 297 300 307 309 298 284 295 289 283 277 252 227 202 215 275 305 290 298 300 281 327 84 280 251 263 271 287 298 289 277 289 293 287 278 275